www.pogodaiklimat.ru

Погода и климат >> Архив погоды >> Венгрия >> Agard


ПОГОДА в Agard

  • Прогноз погоды в Agard
  • Монитор погоды в Agard
  • Климат города

АРХИВ ПОГОДЫ в Agard

Время (UTC), дата Ветер
(напр.,м/с)
 
Видим.   Явления Облачность Т
(С)
Тd
(С)
f
(%)
Тe
(С)
Тes
(С)
Комфортность P
(гПа)
Po
(гПа)
Тmin
(С)
Tmax
(С)
R
(мм)
R24
(мм)
S
(см)
22 6.12 штиль 0 н/о н/о +1.1 -1.3 84 0 0 1026.1 1012.7
23 6.12 штиль 0 н/о н/о +1.0 -1.1 86 -0 -0 1025.7 1012.3
00 7.12 штиль 0 н/о н/о +1.2 -0.6 88 0 0 1025.6 1012.2
02 7.12 ЮВ 1 н/о н/о +1.4 -0.1 90 -1 -1 1024.7 1011.3
01 7.12 штиль 0 н/о н/о +1.5 -0.1 89 0 0 1025.0 1011.6
03 7.12 штиль 0 н/о н/о +1.4 +0.2 92 0 0 1024.5 1011.1
04 7.12 ЮВ 1 н/о н/о +1.6 +0.3 91 -0 -0 1023.9 1010.5
05 7.12 Ю 2 н/о н/о +1.8 +0.3 90 -2 -2 1023.4 1010.0
06 7.12 Ю 2 н/о н/о +1.7 +0.2 90 -2 -2 1022.8 1009.4 -0.7
08 7.12 Ю 2 н/о н/о +2.6 +0.3 85 -1 -1 1021.9 1008.6
07 7.12 Ю 2 н/о н/о +2.2 +0.3 87 -1 -1 1022.3 1009.0
09 7.12 Ю 2 н/о н/о +3.3 +0.7 83 0 0 1021.7 1008.4
10 7.12 Ю 2 н/о н/о +4.1 +0.4 77 +1 +1 1020.9 1007.7
11 7.12 Ю 2 н/о н/о +4.9 +0.8 75 +2 +2 1020.2 1007.0
12 7.12 Ю 2 н/о н/о +5.8 +1.3 73 +4 +4 1019.2 1006.1
14 7.12 Ю 2 н/о н/о +6.6 +1.7 71 +5 +5 1017.7 1004.6
13 7.12 Ю 2 н/о н/о +6.1 +1.6 73 +4 +4 1018.4 1005.3
15 7.12 ЮВ 1 н/о н/о +6.6 +1.5 70 +6 +6 1017.0 1004.0
16 7.12 ЮВ 2 н/о н/о +5.0 +1.1 76 +3 +3 1016.4 1003.3
17 7.12 ЮВ 3 н/о н/о +3.3 +0.9 84 -1 -1 1015.9 1002.7
18 7.12 В 1 н/о н/о +2.5 +0.2 85 +1 +1 1015.2 1002.0 +6.8
21 7.12 СВ 2 н/о н/о +1.4 -0.2 89 -2 -2 1012.4 999.2
00 8.12 СВ 3 н/о н/о +1.1 +0.1 93 -4 -4 1010.6 997.4
02 8.12 СВ 3 н/о н/о +1.7 +0.5 92 -3 -3 1010.2 997.0
01 8.12 СВ 2 н/о н/о +1.7 +0.2 90 -2 -2 1010.5 997.3
03 8.12 СВ 2 н/о н/о +1.6 +0.6 93 -2 -2 1009.6 996.4
04 8.12 СВ 2 н/о н/о +1.7 +1.0 95 -2 -2 1009.8 996.6
05 8.12 С 3 н/о н/о +1.7 +1.3 97 -3 -3 1009.8 996.6
06 8.12 СЗ 1 н/о н/о +1.8 +1.7 99 -0 -0 1010.7 997.5 +0.6 4
08 8.12 штиль 0 н/о н/о +2.1 +2.1 100 +1 +1 1011.7 998.5
07 8.12 штиль 0 н/о н/о +1.9 +1.9 100 +1 +1 1010.9 997.7
09 8.12 штиль 0 н/о н/о +2.3 +2.3 100 +1 +1 1011.8 998.6
10 8.12 З 2 н/о н/о +6.0 +5.6 97 +3 +3 1011.4 998.4
11 8.12 СЗ 7
{11}
н/о н/о +7.3 +2.6 72 +3 +3 1011.7 998.8
12 8.12 СЗ 5
{10}
н/о н/о +8.1 +3.0 70 +5 +5 1011.8 998.9 0.9
14 8.12 СЗ 6
{11}
н/о н/о +8.0 +1.8 65 +4 +4 1012.4 999.5
13 8.12 СЗ 6
{10}
н/о н/о +8.3 +2.7 68 +5 +5 1011.9 999.0
15 8.12 З 4 н/о н/о +7.7 +1.5 65 +5 +5 1012.8 999.9
16 8.12 СЗ 5
{9}
н/о н/о +7.4 +1.3 65 +4 +4 1013.0 1000.0
17 8.12 З 4
{7}
н/о н/о +6.2 +1.3 71 +3 +3 1013.4 1000.4
18 8.12 З 3 н/о н/о +4.8 +0.8 75 +1 +1 1013.5 1000.4 +8.3 0.9
20 8.12 ЮЗ 1 н/о н/о +1.9 +0.3 89 0 0 1013.6 1000.4
19 8.12 Ю 1 н/о н/о +2.9 +0.1 82 +1 +1 1013.8 1000.6
21 8.12 Ю 1 н/о н/о +0.7 -0.0 95 -1 -1 1013.6 1000.3
22 8.12 Ю 1 н/о н/о +0.6 0.0 96 -2 -2 1013.4 1000.1
23 8.12 Ю 1 н/о н/о +1.4 +1.3 99 -1 -1 1013.1 999.9
00 9.12 Ю 1 н/о н/о +2.3 +1.9 97 0 0 1012.3 999.1
02 9.12 Ю 3 н/о н/о +1.5 +0.9 96 -3 -3 1010.9 997.7
01 9.12 Ю 1 н/о н/о +1.6 +1.3 98 -0 -0 1011.5 998.3
03 9.12 Ю 2 н/о н/о +0.8 +0.5 98 -3 -3 1010.1 996.9
04 9.12 Ю 1 н/о н/о +0.2 -0.1 98 -2 -2 1009.2 996.0
05 9.12 Ю 2 н/о н/о +0.6 +0.5 99 -3 -3 1008.8 995.6
06 9.12 Ю 1 н/о н/о +1.1 +0.7 97 -1 -1 1007.5 994.3 -0.2
08 9.12 Ю 3 н/о н/о +2.7 +0.9 88 -1 -1 1006.2 993.1
07 9.12 Ю 2 н/о н/о +2.0 +0.8 92 -1 -1 1006.7 993.6
09 9.12 Ю 1 н/о н/о +3.4 +1.3 86 +2 +2 1005.9 992.8
10 9.12 ЮЗ 1 н/о н/о +4.5 +2.0 84 +3 +3 1006.0 993.0
11 9.12 ЮЗ 3
{7}
н/о н/о +4.7 +2.1 83 +1 +1 1005.2 992.2
12 9.12 Ю 3 н/о н/о +4.8 +2.2 83 +1 +1 1004.1 991.1 1
14 9.12 Ю 2 н/о н/о +6.2 +2.5 77 +4 +4 1004.0 991.1
13 9.12 ЮЗ 3
{7}
н/о н/о +5.8 +2.4 79 +3 +3 1004.0 991.1
15 9.12 Ю 2 н/о н/о +5.5 +2.2 79 +3 +3 1004.5 991.6
16 9.12 штиль 0 н/о н/о +4.8 +1.8 81 +4 +4 1004.7 991.7
17 9.12 ЮЗ 1 н/о н/о +2.8 +1.5 91 +1 +1 1004.6 991.5
18 9.12 Ю 1 н/о н/о +1.8 +0.9 94 -0 -0 1004.8 991.7 +6.2 1
20 9.12 ЮЗ 1 н/о н/о +2.0 +1.1 94 0 0 1005.8 992.7
19 9.12 штиль 0 н/о н/о +1.8 +1.1 95 +1 +1 1005.4 992.3
21 9.12 Ю 1 н/о н/о +2.6 +1.3 91 +1 +1 1005.9 992.8
22 9.12 Ю 1 н/о н/о +1.9 +1.0 94 0 0 1006.2 993.1
23 9.12 Ю 1 н/о н/о +2.8 +1.8 93 +1 +1 1006.8 993.7
00 10.12 штиль 0 н/о н/о +2.2 +1.6 96 +1 +1 1006.9 993.8
02 10.12 ЮЗ 3
{9}
н/о н/о +5.1 +3.4 89 +2 +2 1007.7 994.7
01 10.12 Ю 2 н/о н/о +3.5 +2.6 94 0 0 1007.6 994.5
03 10.12 З 3 н/о н/о +4.9 +2.9 87 +1 +1 1007.6 994.6
04 10.12 З 3 н/о н/о +5.6 +3.1 84 +2 +2 1008.0 995.0
05 10.12 СЗ 4
{8}
н/о н/о +6.5 +2.4 75 +3 +3 1008.5 995.6
06 10.12 СЗ 4 н/о н/о +6.1 +2.4 77 +2 +2 1009.3 996.3 +1.5 1
08 10.12 З 6
{10}
н/о н/о +5.8 +2.1 77 +1 +1 1010.9 997.9
07 10.12 СЗ 6
{9}
н/о н/о +6.0 +1.9 75 +1 +1 1010.1 997.1
09 10.12 З 7 н/о н/о +7.0 +1.3 67 +2 +2 1011.5 998.5
10 10.12 З 6
{12}
н/о н/о +6.7 +0.6 65 +2 +2 1012.3 999.3
11 10.12 З 7
{11}
н/о н/о +6.9 +0.8 65 +2 +2 1012.7 999.7
12 10.12 З 7 н/о н/о +6.8 +0.7 65 +2 +2 1013.0 1000.0
14 10.12 З 6
{12}
н/о н/о +6.8 +0.5 64 +3 +3 1013.5 1000.5
13 10.12 СЗ 8
{12}
н/о н/о +7.0 0.0 61 +2 +2 1013.1 1000.1
15 10.12 З 7
{11}
н/о н/о +6.7 +0.2 63 +2 +2 1013.7 1000.7
16 10.12 СЗ 6
{11}
н/о н/о +6.0 -0.7 62 +2 +2 1014.0 1001.0
17 10.12 З 7
{9}
н/о н/о +5.0 -0.6 67 -0 -0 1014.4 1001.3
18 10.12 З 6
{10}
н/о н/о +4.1 -0.3 73 -1 -1 1014.5 1001.4 +7.1 0.1
20 10.12 З 5
{8}
н/о н/о +3.4 -0.4 76 -2 -2 1015.2 1002.0
19 10.12 З 5
{9}
н/о н/о +3.7 -0.1 76 -1 -1 1014.9 1001.7
21 10.12 З 4 н/о н/о +2.6 -0.2 82 -2 -2 1015.3 1002.1
22 10.12 З 4 н/о н/о +2.5 -0.6 80 -2 -2 1015.2 1002.0
23 10.12 З 3 н/о н/о +1.6 -1.0 83 -3 -3 1015.4 1002.1
00 11.12 З 4 н/о н/о +2.2 -0.4 83 -3 -3 1015.2 1002.0
02 11.12 З 3 н/о н/о +1.1 -1.3 84 -3 -3 1015.6 1002.3
01 11.12 З 3 н/о н/о +1.2 -1.0 85 -3 -3 1015.5 1002.2
03 11.12 З 2 н/о н/о +0.2 -1.9 86 -3 -3 1015.3 1002.0
04 11.12 Ю 1 н/о н/о -0.8 -2.2 90 -3 -3 1015.7 1002.3
05 11.12 ЮЗ 2 н/о н/о +0.7 -2.2 81 -3 -3 1015.7 1002.4
06 11.12 З 1 н/о н/о +1.4 -2.0 78 -0 -0 1015.7 1002.4 -1.0
08 11.12 Ю 1 н/о н/о +2.9 -1.5 73 +2 +2 1016.0 1002.8
07 11.12 Ю 2 н/о н/о +0.2 -2.0 85 -3 -3 1015.7 1002.4
09 11.12 З 3
{9}
н/о н/о +2.0 +0.1 87 -2 -2 1016.2 1002.9
10 11.12 ЮЗ 3 н/о н/о +2.3 +1.1 92 -2 -2 1015.8 1002.6
11 11.12 З 4
{7}
н/о н/о +2.8 +1.9 94 -2 -2 1015.7 1002.5
12 11.12 ЮЗ 3 н/о н/о +3.6 +1.5 86 -0 -0 1015.6 1002.4 0.1
14 11.12 З 4
{9}
н/о н/о +4.2 +1.1 80 -0 -0 1015.8 1002.7
13 11.12 З 5
{9}
н/о н/о +4.6 +0.9 77 -0 -0 1015.4 1002.3
15 11.12 З 3
{7}
н/о н/о +3.6 +1.2 84 -0 -0 1016.2 1003.0
16 11.12 ЮЗ 3 н/о н/о +3.0 +1.7 91 -1 -1 1016.3 1003.1
17 11.12 ЮЗ 3 н/о н/о +2.7 +1.8 94 -2 -2 1016.3 1003.1
18 11.12 З 4
{11}
н/о н/о +2.6 +1.6 93 -2 -2 1016.4 1003.2 +4.7 0.9
20 11.12 ЮЗ 3 н/о н/о +2.0 +1.4 96 -2 -2 1016.6 1003.3
19 11.12 З 4
{8}
н/о н/о +2.3 +1.6 95 -3 -3 1016.6 1003.4
21 11.12 З 4
{7}
н/о н/о +2.3 +1.9 97 -3 -3 1016.1 1002.9
22 11.12 З 5
{9}
н/о н/о +2.8 +1.3 90 -3 -3 1016.0 1002.8
23 11.12 З 6
{9}
н/о н/о +2.9 +1.4 90 -3 -3 1016.2 1003.0
00 12.12 З 5 н/о н/о +2.0 +1.0 93 -4 -4 1016.4 1003.1 0.5
02 12.12 З 5
{8}
н/о н/о +1.5 +0.3 92 -4 -4 1016.6 1003.3
01 12.12 З 4
{7}
н/о н/о +1.7 +0.8 94 -4 -4 1016.5 1003.2
03 12.12 З 2 н/о н/о +1.2 0.0 92 -2 -2 1016.8 1003.5
04 12.12 ЮЗ 2 н/о н/о +0.7 -0.3 93 -3 -3 1016.7 1003.4
05 12.12 СВ 1 н/о н/о +1.4 +0.1 91 -1 -1 1017.3 1004.0
06 12.12 СЗ 4 н/о н/о +1.1 -0.2 91 -4 -4 1017.5 1004.2 +0.3 0.5
08 12.12 СЗ 6
{10}
н/о н/о +1.7 -0.5 85 -4 -4 1018.4 1005.1
07 12.12 З 4
{7}
н/о н/о +1.3 -0.6 87 -4 -4 1018.1 1004.8
09 12.12 СЗ 4 н/о н/о +2.3 0.0 85 -3 -3 1019.0 1005.7
10 12.12 З 4
{7}
н/о н/о +3.4 +0.3 80 -1 -1 1019.0 1005.8
11 12.12 З 3 н/о н/о +4.1 +0.8 79 +1 +1 1019.0 1005.8
12 12.12 С 5
{7}
н/о н/о +3.4 -0.1 78 -2 -2 1019.1 1005.9
14 12.12 СЗ 4 н/о н/о +3.5 -0.5 75 -1 -1 1019.8 1006.6
13 12.12 С 3
{7}
н/о н/о +3.6 0.0 77 -0 -0 1019.3 1006.1
15 12.12 СЗ 1 н/о н/о +2.9 -0.2 80 +1 +1 1020.3 1007.0
16 12.12 З 1 н/о н/о +2.1 0.0 86 0 0 1020.4 1007.1
17 12.12 З 2 н/о н/о +1.8 0.0 88 -2 -2 1020.6 1007.3
18 12.12 З 2 н/о н/о +1.8 -0.3 86 -2 -2 1020.8 1007.5 +4.1
20 12.12 З 1 н/о н/о -1.4 -2.1 95 -4 -4 1021.7 1008.2
19 12.12 СЗ 2 н/о н/о +1.0 -0.9 87 -2 -2 1021.3 1007.9
21 12.12 штиль 0 н/о н/о -1.9 -2.2 98 -3 -3 1021.8 1008.3
22 12.12 штиль 0 н/о н/о -2.4 -2.7 98 -4 -4 1022.1 1008.6
23 12.12 ЮЗ 1 н/о н/о -2.9 -3.2 98 -5 -5 1022.4 1008.8
00 13.12 штиль 0 н/о н/о -3.4 -3.7 98 -5 -5 1022.5 1008.9
02 13.12 штиль 0 н/о н/о -4.1 -4.5 97 -5 -5 1022.7 1009.1
01 13.12 штиль 0 н/о н/о -3.6 -3.9 98 -5 -5 1022.5 1008.9
03 13.12 штиль 0 н/о н/о -4.5 -4.9 97 -6 -6 1022.7 1009.0
04 13.12 штиль 0 н/о н/о -4.5 -4.9 97 -6 -6 1022.3 1008.6
05 13.12 штиль 0 н/о н/о -2.9 -3.2 98 -4 -4 1022.4 1008.8
06 13.12 штиль 0 н/о н/о -1.5 -1.5 100 -3 -3 1022.2 1008.7 -4.7
08 13.12 штиль 0 н/о н/о -1.0 -1.0 100 -2 -2 1022.8 1009.3
07 13.12 штиль 0 н/о н/о -1.2 -1.2 100 -3 -3 1022.5 1009.0
09 13.12 штиль 0 н/о н/о -1.0 -1.0 100 -2 -2 1022.9 1009.4
10 13.12 штиль 0 н/о н/о -0.9 -0.9 100 -2 -2 1022.8 1009.3
11 13.12 штиль 0 н/о н/о -0.7 -0.7 100 -2 -2 1022.5 1009.0
12 13.12 штиль 0 н/о н/о -0.6 -0.6 100 -2 -2 1022.3 1008.8
14 13.12 СВ 1 н/о н/о -0.5 -0.5 100 -3 -3 1021.7 1008.3
13 13.12 штиль 0 н/о н/о -0.7 -0.7 100 -2 -2 1021.9 1008.4
15 13.12 штиль 0 н/о н/о -0.8 -0.8 100 -2 -2 1022.0 1008.5
16 13.12 С 1 н/о н/о -1.2 -1.2 100 -4 -4 1021.9 1008.4
17 13.12 ЮЗ 1 н/о н/о -1.3 -1.3 100 -4 -4 1022.2 1008.7
18 13.12 З 1 н/о н/о -1.4 -1.4 100 -4 -4 1022.1 1008.6 -0.3
20 13.12 СВ 1 н/о н/о -1.5 -1.5 100 -4 -4 1022.5 1009.0
19 13.12 С 2 н/о н/о -1.8 -1.8 100 -6 -6 1022.0 1008.5
21 13.12 СЗ 2 н/о н/о -1.8 -1.8 100 -6 -6 1022.7 1009.2

 

Местоположение метеостанции Agard (Венгрия): широта 47.18 долгота 18.62 высота над уровнем моря 106 м.

В архиве по умолчанию представлена погода в Agard за последнюю неделю. Архивные данные за месяц целиком и за предыдущие месяцы, начиная с января 2011 года, Вы можете получить, выбрав интересующий диапазон дат из раскрывающегося списка и нажав кнопку "Ввод!".


*Определитесь, кто Вы:
робот инопланетянин человек

Внимание! Время в таблицах - всемирное. Для получения местного времени необходимо прибавить поправку, которая в Agard равна 1 ч.

Смотрите также архив погоды в соседних городах и на ближайших метеорологических станциях:

Погода в Budapest (Венгрия) (51 км)
Погода в Siofok (Венгрия) (52 км)
Погода в Tata (Венгрия) (57 км)
Погода в Veszprem (Венгрия) (61 км)
Погода в Tat (Венгрия) (63 км)
Погода в Paks (Венгрия) (69 км)
Погода в Hurbanovo (Словакия) (83 км)
Погода в Kecskemet (Венгрия) (90 км)
Погода в Gyor (Венгрия) (93 км)
Погода в Kaposvar (Венгрия) (107 км)

Пояснения к столбцам:

Ветер - указаны скорость ветра в м/с - средняя за 10 мин, порывы в срок и между сроками (в фигурных скобках) и направление, откуда дует ветер: С - северный, СВ - северо-восточный, В - восточный, ЮВ - юго-восточный, Ю - южный, ЮЗ - юго-западный, З - западный, СЗ - северо-западный.
Видимость - горизонтальная дальность видимости в метрах или километрах. При видимости от 1 до 10 км при отсутствии осадков обычно наблюдается дымка, при ухудшении видимости до 1 км и менее - туман. В сухую погоду видимость может ухудшаться дымом, пылью или мглою.
Явления - указаны атмосферные явления, наблюдавшиеся в срок или в последний час перед сроком; фигурными скобками обозначены явления, наблюдавшиеся между сроками (за 1-3 часа до срока); квадратными скобками обозначены град или гололедные отложения с указанием их диаметра в мм.
Облачность - указаны через наклонную черту общая и нижняя облачность в баллах и высота нижней границы облаков в метрах; квадратными скобками обозначены формы облаков: Ci - перистые, Cs - перисто-слоистые, Cc - перисто-кучевые, Ac - высококучевые, As - высокослоистые, Sc - слоисто-кучевые, Ns - слоисто-дождевые, Cu - кучевые, Cb - кучево-дождевые. Подробнее классификацию облаков см. в Атласе облаков (PDF).
T - Температура воздуха - температура, измеренная на высоте 2 м над землей.
Td - Температура точки росы - температура, при понижении до которой содержащийся в воздухе водяной пар достигнет насыщения.
f - Относительная влажность воздуха - влажноcть воздуха, измеренная на высоте 2 м над землей.
Te - Эффективная температура - температура, которую ощущает одетый по сезону человек в тени. Характеристика душности погоды. При расчете учитывается влияние влажности воздуха и скорости ветра на теплоощущения человека.
Tes - Эффективная температура на солнце - температура, которую ощущает человек, с поправкой на солнечный нагрев. Характеристика знойности погоды. Зависит от высоты солнца над горизонтом, облачности и скорости ветра. Ночью, в пасмурную погоду, а также при ветре 12 м/с и более поправка равна нулю.
P - Атмосферное давление - приведенное к уровню моря атмосферное давление.
Po - Атмосферное давление - измеренное на уровне метеостанции атмосферное давление.
Tmin - Минимальная температура - минимум температуры воздуха на высоте 2 м над землей.
Tmax - Максимальная температура - максимум температуры воздуха на высоте 2 м над землей.
R - Количество осадков - Количество выпавших осадков за период времени, мм. При наведении курсора мыши на число - период времени, за который выпало указанное количество осадков.
R24 - Количество осадков - Количество выпавших осадков за 24 часа, мм.
S - Снежный покров - Высота снежного покрова, см. При наведении курсора мыши на число - состояние снежного покрова и степень покрытия местности в баллах.